Temp
2 2 2 2 1 1 3 5 7 8 8 9 9 8 9 10 10 10 11 12 12 12 12 12 11 11 10 10 10 10 10 10 10 10 9 9 8 8 8 8 9 9 8 8 8 8 8 7 7
3 2 1 1 1 0 2 6 6 8 9 9 8 8 9 9 9 10 11 12 12 12 12 12 12 11 10 10 10 10 10 9 9 9 8 8 8 7 7 9 9 8 8 8 8 7 7 7 7
2 2 1 0 1 -0 2 6 7 7 7 8 8 7 9 8 10 10 10 12 12 12 12 12 11 11 10 10 10 9 9 9 9 8 8 8 8 8 8 8 8 8 8 7 7 7 7 6 6
0 0 -0 -0 1 1 3 6 6 7 7 7 8 7 7 8 9 10 10 11 12 12 11 11 11 10 10 10 9 9 9 9 9 9 9 9 9 9 8 8 8 7 7 7 7 6 6 6 6
-0 -1 -1 -0 0 0 3 6 5 6 7 7 7 8 7 8 8 9 10 10 12 12 11 11 11 10 10 9 9 9 9 9 9 9 9 9 8 8 8 8 7 7 7 7 6 6 6 6 6
-2 -2 -2 -1 -0 0 1 3 3 5 6 7 7 7 8 7 7 9 10 10 11 11 11 11 10 10 9 9 9 9 9 9 9 9 9 8 8 8 8 7 7 7 7 6 6 6 6 6 5
-3 -3 -2 -1 1 0 2 1 2 4 6 7 7 7 7 8 6 8 9 10 11 11 11 10 10 10 9 9 9 9 9 9 8 8 8 8 8 7 7 7 7 7 6 6 6 6 5 5 5
-4 -4 -3 -2 -0 0 2 0 1 3 5 6 7 7 6 7 7 6 7 9 10 10 10 10 10 9 9 9 8 8 8 8 8 8 8 8 7 7 7 7 7 6 6 6 5 5 5 5 5
-5 -5 -4 -3 -2 1 -0 -1 1 4 5 5 6 7 7 7 7 7 7 9 9 9 10 10 9 9 9 8 8 8 8 8 8 8 8 7 7 7 7 6 6 6 6 5 5 5 5 5 5
-5 -5 -4 -2 -2 -1 -1 -1 1 2 3 5 6 6 7 7 7 6 7 8 9 9 9 9 9 9 8 8 8 8 8 8 8 8 8 7 7 7 6 6 6 6 6 6 6 6 5 5 5
-5 -5 -3 -2 -3 -3 -2 -1 -1 0 1 3 5 5 7 7 7 7 6 8 9 9 9 9 8 8 8 8 8 8 8 8 8 8 8 7 7 7 6 6 6 6 6 6 6 6 6 6 5
-6 -5 -4 -2 -3 -3 -2 -1 -1 -1 1 3 4 5 6 7 8 8 6 7 5 7 8 7 8 8 8 8 8 8 8 8 8 8 8 7 7 7 6 6 6 6 6 6 6 6 6 6 6
-6 -5 -5 -4 -4 -3 -3 -2 -1 -0 0 2 4 4 5 7 6 7 7 7 7 7 7 6 7 8 8 8 8 8 8 8 8 8 8 7 7 7 7 6 6 6 6 6 6 6 6 6 6
-6 -6 -5 -4 -4 -3 -3 -2 -2 1 1 2 5 4 5 6 6 6 7 7 7 6 6 6 6 7 8 8 8 8 8 8 8 8 7 7 7 7 6 6 6 6 6 6 6 6 6 6 6
-6 -6 -5 -4 -4 -3 -3 -3 -2 1 0 2 3 4 5 5 6 7 7 7 7 6 6 6 6 6 7 8 8 8 8 8 8 7 7 7 7 7 6 6 6 6 6 6 6 6 6 6 6
-7 -6 -5 -3 -3 -3 -3 -2 -2 -0 -0 1 2 4 4 5 5 6 6 6 7 6 6 6 7 7 7 7 8 8 8 8 7 7 7 7 7 7 7 6 6 6 6 6 6 6 6 6 6
-6 -6 -4 -4 -3 -3 -4 -3 -1 0 -1 1 2 3 4 5 5 5 5 5 6 6 6 6 7 7 7 7 7 7 7 7 7 7 7 7 7 6 6 6 6 6 6 6 6 6 6 6 6
-7 -6 -5 -4 -2 -3 -3 -3 -2 -0 -2 1 3 3 5 5 5 5 5 5 5 6 6 6 7 7 7 7 7 7 7 7 7 7 6 6 6 6 6 6 6 6 7 7 6 6 6 6 6
-7 -7 -6 -4 -2 -3 -3 -2 -1 -2 -2 -0 2 3 4 5 5 5 5 4 5 5 5 6 5 6 6 7 7 8 7 7 7 7 7 7 7 6 6 6 6 6 7 6 6 6 6 6 5
-7 -6 -4 -2 -3 -3 -2 -2 -2 -2 -2 -2 2 2 3 4 4 4 5 4 4 5 5 5 5 6 7 6 6 7 7 7 6 6 7 7 7 6 6 7 6 6 6 6 6 5 5 5 5
-5 -6 -4 -2 -3 -2 -2 -3 -2 -2 -2 -2 1 2 3 3 3 3 4 4 3 5 4 4 4 4 5 5 5 6 5 5 5 6 6 5 5 5 6 6 6 6 6 6 5 5 4 4 4
-5 -5 -4 -3 -2 -2 -2 -2 -2 -2 -2 -1 -1 1 2 3 3 3 4 4 4 4 5 4 4 4 5 3 4 4 4 4 4 4 5 4 4 5 5 6 5 5 5 4 4 4 3 2 2
-5 -5 -4 -3 -1 -3 -2 -2 -2 -1 -1 -1 -1 1 2 3 3 3 4 4 4 4 3 3 3 4 5 4 3 4 4 4 3 2 4 4 4 5 5 5 5 4 4 3 3 2 3 3 3
-5 -4 -3 -3 -2 -3 -2 -1 -1 -2 -1 -2 -1 1 2 2 3 3 4 5 5 4 3 3 3 4 4 4 5 5 4 4 4 4 4 4 4 5 5 4 3 3 3 4 4 3 3 3 3
-4 -4 -4 -4 -4 -3 -2 -1 0 -0 0 0 -0 0 1 2 2 3 4 4 4 3 3 3 4 3 4 4 3 4 4 4 3 4 4 4 4 4 4 4 4 4 3 3 4 3 3 3 3
-5 -3 -3 -3 -3 -3 -2 -2 -1 -0 0 1 2 0 0 1 2 3 3 3 3 3 4 3 3 4 4 4 3 4 3 3 4 4 4 4 4 4 4 4 3 3 3 3 3 3 2 3 2
-4 -3 -3 -3 -3 -4 -3 -1 -0 1 1 1 1 2 0 1 1 3 3 3 3 3 3 4 4 4 4 3 3 4 4 4 4 4 4 4 4 3 3 3 3 3 3 3 2 2 1 1 1
-3 -3 -3 -3 -4 -3 -3 -2 -1 1 1 1 2 3 1 -1 0 1 1 2 2 3 3 3 3 3 3 3 3 4 4 4 4 4 4 4 3 3 3 3 2 2 2 2 1 1 1 0 0
-3 -3 -3 -3 -3 -4 -4 -3 -2 -0 1 2 1 1 1 1 1 -0 -0 1 2 2 2 2 3 3 3 3 3 3 3 3 3 3 3 3 2 2 2 2 2 1 1 1 1 0 0 0 0
-4 -3 -3 -2 -3 -3 -2 -3 -2 -0 1 1 1 1 1 1 1 1 1 2 2 2 2 2 2 2 2 2 2 3 3 3 3 3 2 2 2 2 1 1 0 0 0 0 0 -0 -0 -0 -0
Height
3099 3102 3106 3109 3115 3105 3099 3101 3105 3109 3115 3120 3127 3130 3133 3137 3138 3142 3140 3142 3144 3146 3148 3150 3153 3155 3157 3159 3161 3164 3166 3167 3168 3170 3172 3174 3175 3178 3181 3182 3184 3185 3186 3187 3187 3187 3188 3188 3189
3093 3096 3099 3102 3100 3096 3090 3095 3098 3105 3113 3117 3123 3125 3129 3131 3134 3137 3140 3140 3142 3145 3147 3149 3153 3155 3157 3159 3161 3163 3165 3167 3168 3170 3172 3174 3176 3179 3181 3183 3185 3186 3187 3188 3188 3189 3189 3190 3190
3087 3089 3094 3093 3085 3076 3083 3091 3097 3104 3109 3111 3115 3120 3125 3126 3130 3134 3138 3139 3140 3143 3147 3149 3151 3154 3157 3159 3161 3163 3165 3166 3168 3171 3173 3175 3177 3179 3182 3184 3186 3187 3188 3189 3190 3190 3191 3192 3192
3079 3082 3085 3080 3076 3075 3084 3094 3096 3103 3107 3106 3109 3113 3123 3124 3128 3132 3134 3137 3139 3141 3145 3148 3150 3153 3156 3158 3161 3163 3164 3166 3168 3171 3173 3176 3178 3180 3182 3185 3186 3188 3189 3191 3192 3192 3193 3193 3194
3072 3072 3073 3068 3068 3075 3083 3090 3093 3099 3105 3106 3105 3106 3115 3122 3123 3127 3131 3135 3137 3139 3142 3146 3149 3151 3154 3157 3160 3162 3164 3166 3168 3171 3173 3177 3179 3181 3183 3185 3187 3189 3190 3192 3193 3194 3195 3195 3196
3065 3065 3064 3062 3064 3070 3077 3081 3088 3094 3101 3105 3104 3105 3107 3117 3119 3123 3127 3130 3134 3137 3140 3144 3147 3151 3153 3156 3159 3162 3164 3166 3169 3171 3174 3177 3180 3182 3184 3186 3189 3190 3192 3194 3195 3196 3197 3197 3198
3056 3059 3056 3059 3059 3065 3068 3074 3080 3090 3094 3100 3103 3102 3104 3108 3115 3118 3122 3126 3130 3134 3138 3141 3145 3149 3152 3156 3159 3161 3164 3167 3170 3172 3175 3178 3180 3183 3185 3187 3190 3192 3194 3195 3196 3198 3199 3199 3200
3051 3053 3050 3051 3052 3055 3067 3070 3074 3083 3089 3095 3099 3099 3098 3102 3108 3113 3116 3121 3126 3130 3135 3140 3143 3147 3151 3154 3158 3161 3164 3167 3170 3173 3175 3178 3181 3184 3186 3188 3190 3192 3195 3197 3198 3199 3200 3201 3201
3046 3047 3043 3045 3050 3052 3059 3064 3071 3080 3082 3085 3094 3097 3099 3101 3104 3095 3108 3114 3120 3125 3131 3136 3141 3146 3150 3154 3157 3161 3164 3167 3170 3173 3176 3179 3182 3185 3187 3190 3192 3194 3195 3197 3199 3200 3201 3202 3203
3039 3037 3036 3042 3046 3047 3055 3059 3064 3070 3074 3079 3085 3092 3096 3099 3102 3099 3101 3108 3116 3122 3127 3133 3139 3143 3148 3152 3156 3160 3164 3167 3170 3173 3176 3179 3183 3186 3189 3191 3193 3196 3197 3199 3200 3202 3203 3203 3204
3031 3028 3034 3036 3039 3044 3049 3052 3060 3062 3068 3072 3081 3088 3092 3097 3100 3100 3088 3106 3114 3120 3125 3131 3136 3141 3146 3151 3155 3159 3163 3166 3170 3173 3176 3180 3183 3186 3189 3192 3194 3196 3197 3199 3201 3202 3203 3204 3204
3026 3025 3028 3031 3034 3038 3043 3050 3051 3056 3062 3072 3079 3086 3087 3090 3094 3095 3100 3105 3108 3119 3123 3128 3134 3139 3145 3151 3156 3159 3163 3166 3170 3173 3176 3180 3183 3187 3190 3191 3194 3196 3198 3199 3200 3201 3202 3203 3204
3019 3020 3022 3024 3028 3034 3040 3041 3044 3048 3056 3063 3070 3080 3082 3085 3091 3095 3100 3105 3111 3120 3123 3125 3131 3138 3144 3150 3154 3158 3162 3166 3170 3173 3176 3180 3183 3187 3189 3191 3193 3196 3198 3199 3200 3201 3202 3202 3203
3016 3016 3018 3020 3023 3030 3033 3036 3037 3043 3050 3056 3063 3074 3078 3083 3088 3092 3097 3103 3108 3115 3119 3121 3129 3137 3143 3149 3153 3157 3161 3166 3169 3173 3177 3180 3183 3186 3189 3191 3193 3195 3197 3199 3200 3201 3201 3202 3202
3012 3012 3013 3012 3019 3025 3031 3030 3029 3040 3043 3051 3056 3067 3074 3078 3083 3091 3095 3101 3107 3112 3121 3122 3126 3134 3141 3147 3151 3155 3160 3164 3169 3173 3176 3180 3183 3186 3188 3191 3193 3194 3196 3197 3199 3200 3200 3200 3200
3009 3009 3007 3006 3013 3017 3023 3020 3027 3031 3039 3047 3052 3062 3070 3074 3079 3086 3092 3100 3106 3111 3115 3124 3127 3134 3139 3145 3149 3153 3157 3163 3168 3171 3175 3178 3182 3185 3187 3190 3191 3193 3194 3195 3197 3197 3198 3198 3198
3007 3005 3002 3004 3005 3013 3018 3018 3021 3026 3030 3041 3048 3057 3063 3069 3075 3080 3089 3097 3103 3108 3114 3121 3128 3131 3137 3142 3147 3151 3155 3160 3165 3169 3173 3177 3180 3183 3186 3188 3190 3191 3192 3193 3194 3195 3195 3195 3195
3005 3002 3000 3001 3003 3010 3011 3015 3016 3021 3024 3021 3041 3049 3056 3064 3072 3078 3082 3089 3097 3106 3112 3119 3123 3128 3131 3138 3144 3149 3153 3157 3162 3167 3171 3175 3178 3181 3183 3185 3187 3188 3189 3190 3190 3191 3191 3192 3192
3002 3001 2998 2999 3000 3006 3010 3013 3014 3016 3017 3023 3028 3041 3049 3059 3067 3074 3081 3076 3089 3096 3104 3110 3116 3124 3128 3134 3140 3146 3151 3154 3158 3163 3167 3171 3174 3178 3180 3182 3183 3185 3186 3186 3186 3187 3187 3186 3186
2998 2998 2995 2997 3003 3009 3010 3011 3013 3015 3015 3023 3022 3033 3046 3054 3063 3070 3076 3081 3087 3092 3090 3089 3089 3112 3124 3130 3135 3141 3147 3151 3156 3160 3164 3168 3171 3174 3177 3179 3179 3180 3181 3181 3182 3182 3182 3181 3180
2995 2996 2998 3000 3001 3005 3010 3014 3014 3013 3015 3012 3017 3031 3042 3051 3060 3066 3073 3079 3086 3090 3093 3096 3092 3102 3116 3124 3130 3137 3142 3146 3151 3155 3160 3162 3167 3170 3172 3172 3172 3173 3175 3175 3175 3175 3176 3176 3177
2995 2995 2998 3000 3002 3002 3009 3014 3017 3021 3018 3018 3027 3027 3038 3048 3056 3064 3070 3076 3083 3090 3094 3096 3098 3097 3108 3115 3124 3128 3129 3140 3145 3149 3153 3156 3160 3163 3164 3164 3165 3167 3168 3169 3168 3169 3169 3170 3171
2997 2998 3000 3002 3005 3010 3010 3013 3013 3012 3011 3018 3025 3025 3036 3047 3055 3062 3068 3074 3079 3085 3090 3094 3098 3094 3085 3107 3116 3126 3129 3134 3138 3139 3146 3152 3155 3156 3157 3158 3160 3160 3162 3162 3160 3159 3163 3163 3164
2997 3001 3002 3004 3006 3006 3008 3011 3015 3019 3023 3024 3017 3022 3035 3046 3055 3062 3067 3072 3077 3082 3087 3093 3096 3096 3101 3108 3111 3115 3123 3129 3127 3137 3141 3147 3150 3152 3152 3154 3151 3149 3151 3153 3156 3158 3159 3159 3160
3000 3003 3007 3010 3011 3012 3010 3013 3018 3019 3020 3023 3026 3021 3032 3044 3054 3062 3067 3072 3076 3080 3085 3089 3094 3099 3104 3107 3105 3112 3118 3123 3128 3133 3139 3142 3144 3145 3147 3149 3150 3151 3152 3152 3153 3154 3154 3154 3153
3003 3005 3006 3008 3009 3016 3016 3019 3023 3025 3024 3023 3029 3032 3032 3044 3055 3060 3065 3071 3076 3080 3086 3090 3096 3099 3101 3105 3110 3114 3116 3122 3127 3131 3132 3136 3139 3140 3142 3144 3145 3146 3147 3147 3148 3147 3147 3147 3145
3005 3010 3012 3012 3013 3013 3020 3024 3026 3023 3026 3027 3029 3035 3036 3042 3051 3058 3063 3069 3075 3079 3085 3089 3093 3096 3100 3105 3109 3112 3116 3120 3124 3126 3128 3131 3134 3136 3138 3140 3140 3142 3142 3141 3142 3142 3141 3141 3142
3006 3011 3010 3007 3015 3022 3023 3023 3023 3025 3025 3027 3029 3035 3041 3045 3048 3052 3062 3069 3073 3078 3083 3087 3091 3093 3097 3101 3105 3109 3113 3116 3118 3121 3123 3126 3129 3131 3133 3134 3135 3136 3136 3136 3136 3136 3136 3137 3137
3013 3011 3013 3014 3016 3017 3025 3033 3027 3025 3025 3027 3029 3035 3041 3046 3051 3055 3061 3068 3072 3075 3081 3084 3087 3092 3095 3098 3101 3104 3108 3111 3114 3116 3120 3121 3124 3126 3127 3129 3128 3130 3131 3131 3130 3130 3130 3131 3131
3016 3016 3016 3015 3021 3021 3024 3031 3027 3025 3026 3030 3034 3039 3042 3045 3048 3057 3062 3066 3069 3072 3077 3082 3084 3088 3092 3096 3099 3101 3103 3107 3108 3112 3115 3115 3119 3121 3122 3123 3123 3125 3125 3125 3125 3124 3124 3125 3125
Wind_Speed
34 35 31 30 25 22 34 43 41 41 43 45 36 25 23 22 24 19 10 18 18 22 21 20 18 17 16 15 13 12 10 9 10 11 12 13 14 13 13 10 6 11 12 11 11 13 14 14 15
32 37 34 32 32 23 37 50 46 43 39 41 40 30 23 16 23 22 8 19 21 23 21 19 17 17 16 15 14 12 11 11 11 12 14 14 15 15 11 8 12 13 11 12 13 14 14 13 13
32 36 38 32 28 44 38 50 51 42 35 31 45 31 31 20 20 21 24 16 25 24 20 19 18 17 17 15 13 12 12 12 12 14 14 13 13 13 12 14 14 12 13 13 13 13 12 13 14
32 31 38 43 30 44 52 51 50 45 25 23 26 42 37 20 22 21 25 20 27 26 22 20 18 18 16 15 14 13 12 13 13 13 13 13 14 15 16 15 14 15 14 13 13 12 13 15 16
33 33 38 40 48 33 51 54 42 44 35 24 20 27 42 24 24 28 26 25 28 28 24 21 19 19 18 16 15 14 14 14 14 15 15 15 16 16 16 16 16 15 14 13 15 15 16 18 18
29 32 27 42 50 28 43 52 40 29 43 31 24 22 27 37 26 29 26 27 32 29 26 24 21 20 18 17 16 15 15 16 16 17 17 17 17 17 17 16 15 15 16 16 18 18 18 17 16
36 29 34 42 54 50 41 44 35 33 28 41 28 24 33 35 30 30 30 33 35 31 27 25 23 22 20 18 17 17 17 17 18 18 18 18 18 17 17 16 16 18 19 19 18 17 17 16 15
31 38 29 39 46 48 57 39 33 33 29 36 41 30 36 40 38 31 35 35 35 33 29 26 25 23 21 20 19 19 19 19 19 19 18 18 18 18 18 19 20 22 20 20 20 18 17 16 15
30 33 35 42 40 48 30 46 46 34 29 29 38 34 29 35 40 35 35 35 36 35 31 28 26 24 22 22 21 21 21 20 20 20 19 19 19 19 20 22 22 22 21 20 18 17 15 13 12
32 36 43 39 40 43 31 37 23 44 34 30 44 29 28 33 39 43 40 39 34 36 34 30 27 25 25 23 23 22 22 21 21 21 21 20 20 21 22 23 22 20 19 17 15 14 12 10 9
33 43 41 42 43 38 37 28 54 40 42 29 38 36 29 33 39 38 30 33 38 34 32 31 29 27 26 25 24 24 24 23 23 22 22 22 23 23 23 22 21 18 16 13 11 10 9 8 7
31 38 43 46 34 37 22 37 35 42 45 40 34 36 35 34 41 40 40 32 43 30 33 30 29 28 26 25 25 25 25 24 24 23 23 24 24 23 22 21 18 15 13 10 8 6 6 6 6
27 33 39 42 48 28 23 27 42 44 40 45 37 43 38 35 37 37 38 34 33 30 39 31 29 28 27 27 28 27 26 25 25 25 26 26 25 23 21 19 16 13 9 6 4 3 3 4 4
22 21 35 39 38 35 30 21 41 55 33 43 52 45 37 38 37 37 37 35 33 31 40 38 30 27 29 30 30 29 28 27 28 28 27 27 25 22 19 16 12 9 6 3 1 2 4 6 7
22 22 26 31 38 44 26 41 35 51 35 38 48 49 41 37 40 39 32 34 33 31 35 33 32 30 31 31 32 31 30 30 30 29 28 26 24 21 18 15 11 8 5 4 5 6 7 8 10
18 17 24 25 35 47 18 38 34 47 18 30 45 54 47 41 40 42 39 36 36 33 39 42 30 28 29 33 34 34 33 32 32 30 29 27 24 20 17 14 11 10 8 9 10 10 11 12 13
18 17 25 12 26 44 26 31 35 39 5 28 42 55 51 46 40 40 40 38 39 40 47 46 35 31 30 35 35 36 35 35 33 32 29 27 23 20 18 16 15 14 13 14 15 15 17 17 17
11 10 24 19 25 35 37 31 31 41 32 19 41 54 56 49 45 43 39 44 41 43 39 36 40 41 42 36 34 35 36 35 34 32 29 26 24 22 20 18 18 18 19 20 20 21 22 22 22
16 20 18 17 15 31 30 23 32 41 47 4 30 51 49 51 48 42 43 34 40 42 40 40 48 42 41 36 36 35 35 35 34 32 29 28 25 22 21 21 22 23 24 25 26 27 27 27 25
11 16 10 18 14 25 16 8 14 24 37 30 28 43 46 45 44 48 47 40 38 37 39 37 47 39 44 41 40 39 35 33 32 30 27 24 23 22 22 23 23 25 26 26 27 28 29 30 28
8 8 16 17 12 13 13 9 9 12 21 19 23 33 43 41 42 40 44 46 50 39 32 40 42 46 40 41 37 32 30 28 28 26 26 22 23 22 27 25 24 25 27 25 23 24 25 28 23
8 7 12 12 14 2 13 3 8 2 10 20 13 29 41 37 37 36 36 34 37 39 44 39 39 41 38 45 42 38 29 35 29 22 23 28 21 22 25 22 21 19 19 20 20 19 20 18 31
3 13 8 10 8 11 6 5 3 1 9 7 19 33 40 38 35 34 34 34 32 29 45 43 33 33 31 28 26 26 24 35 38 25 30 34 25 27 23 20 21 19 17 15 22 21 22 28 20
6 16 8 9 5 3 9 4 2 8 10 7 5 32 37 40 34 33 31 31 30 28 26 37 33 39 24 23 26 23 24 23 21 18 21 20 21 22 18 20 19 32 26 23 21 21 23 23 23
14 14 3 4 5 2 5 4 8 5 2 5 10 20 39 40 32 33 32 29 26 20 14 18 22 26 28 29 23 24 22 18 13 18 19 18 17 17 16 14 14 17 18 19 21 23 24 25 23
27 16 3 3 2 1 5 4 6 7 2 6 8 2 26 40 31 33 33 27 24 20 21 19 18 19 19 18 18 20 12 14 16 19 16 16 18 16 14 15 15 17 18 19 22 21 18 22 21
10 12 5 7 8 3 2 4 6 6 6 5 10 8 15 26 31 37 31 24 20 17 18 19 18 18 18 20 20 20 20 19 20 19 18 18 18 17 17 17 18 19 21 21 18 18 21 20 19
14 7 3 4 3 4 5 6 10 8 5 10 15 17 18 21 29 31 15 16 17 18 18 19 19 19 20 22 22 22 23 22 23 23 22 21 20 19 19 17 18 19 20 21 21 24 24 26 27
10 7 6 5 4 3 4 2 11 9 14 11 9 17 22 26 23 16 14 17 19 20 22 23 22 21 21 18 20 23 24 24 22 21 21 20 19 17 16 16 18 19 18 18 19 23 22 24 28
11 11 9 5 3 7 6 6 10 9 11 11 9 8 17 21 18 19 21 22 22 21 20 22 23 20 19 18 19 20 21 22 21 22 21 19 18 16 15 17 18 19 19 20 17 18 21 24 27
Wind_Direction
235 229 224 225 221 217 222 217 221 219 218 223 218 221 218 222 229 209 229 216 202 200 198 187 183 175 177 175 177 177 177 178 171 171 166 168 163 156 149 139 123 119 114 109 104 103 99 99 95
240 228 221 224 220 217 222 219 217 221 220 223 220 216 209 220 237 221 229 211 195 195 195 181 183 179 180 178 178 177 176 172 167 160 152 154 155 153 149 136 127 123 116 113 112 106 103 100 97
243 228 224 227 233 219 219 219 219 218 219 223 218 212 212 236 231 223 227 227 192 189 193 184 183 179 179 179 179 176 173 166 160 153 155 152 151 150 140 132 128 123 121 118 111 106 105 101 94
237 230 226 229 235 228 223 224 226 220 209 215 216 226 217 217 234 216 219 224 192 187 190 185 183 178 177 179 176 171 170 165 161 158 155 149 144 139 134 133 130 126 122 116 109 105 103 98 94
229 230 228 236 238 244 224 224 229 226 214 210 202 213 222 219 218 226 216 214 197 190 188 183 183 177 176 175 174 170 166 162 159 156 151 147 143 139 136 133 130 126 121 116 112 107 104 98 93
220 227 231 233 233 235 222 223 222 230 222 217 218 208 210 213 216 219 206 204 193 193 186 181 181 178 177 174 172 170 165 159 156 154 152 149 144 140 136 133 130 125 121 117 110 106 100 94 88
225 224 232 237 237 244 228 221 227 221 227 215 217 211 207 213 209 202 191 196 190 188 187 181 181 178 176 174 172 169 165 160 157 155 152 147 142 139 137 133 129 124 119 112 105 99 92 87 82
229 221 236 237 239 242 230 234 219 211 220 215 224 224 206 212 209 207 183 187 191 184 186 184 181 179 177 174 173 170 165 161 159 154 149 147 144 143 138 133 130 123 117 109 102 92 84 78 73
229 228 234 234 240 241 242 237 219 198 207 203 220 220 211 204 205 196 179 183 188 185 184 186 183 179 178 177 173 170 166 163 159 154 150 148 146 142 137 132 127 120 112 105 98 92 85 75 65
229 230 228 231 239 244 235 237 229 217 214 207 216 217 211 208 207 217 187 184 190 189 183 186 184 181 179 178 174 171 168 163 160 155 151 149 146 141 136 130 122 114 106 100 94 89 83 75 64
242 234 234 229 232 243 236 236 235 229 217 204 221 223 210 211 204 217 210 184 190 188 188 189 186 183 183 180 174 170 168 164 160 157 153 150 145 141 135 128 121 115 111 104 94 82 73 65 55
244 243 235 231 234 237 243 235 225 231 215 199 211 223 210 214 208 211 207 217 205 197 192 192 188 188 183 180 175 171 168 165 161 158 154 149 145 141 137 131 128 126 122 114 102 85 67 49 35
251 241 236 234 238 248 239 234 228 223 202 203 205 214 210 206 204 203 203 203 198 214 201 192 195 191 185 180 177 174 168 165 162 158 154 151 148 146 143 140 139 138 135 125 108 68 25 11 1
255 258 242 241 239 233 227 244 234 229 196 201 199 211 210 207 206 202 198 204 197 209 204 186 198 200 190 184 178 175 168 167 162 160 158 156 156 157 157 156 154 155 156 164 231 328 330 328 323
256 265 256 245 234 230 230 243 225 222 202 203 206 213 210 209 206 204 204 206 201 191 181 191 186 199 196 187 180 178 173 169 167 165 165 166 166 168 171 174 179 187 203 236 267 288 299 305 307
296 267 251 248 226 228 233 240 224 221 236 213 215 211 212 210 204 206 208 205 198 192 189 186 196 201 201 194 185 180 178 174 174 173 176 177 179 182 187 194 207 221 239 258 270 279 285 289 291
282 269 237 245 221 219 235 248 224 221 269 209 209 207 207 207 204 204 199 200 199 194 182 183 206 193 203 200 195 186 185 182 182 184 186 188 193 198 206 215 229 243 254 263 271 277 282 283 284
286 312 221 221 207 219 239 248 236 214 251 142 194 199 202 205 203 205 207 197 197 192 199 204 187 185 199 199 201 198 191 189 189 193 195 199 206 213 221 231 243 253 262 269 273 277 280 283 283
297 299 276 209 199 207 223 254 246 231 253 109 165 186 194 203 206 206 208 210 200 204 205 200 202 209 206 202 201 205 199 195 196 198 203 208 215 224 233 241 251 261 268 272 277 280 280 277 276
296 293 193 202 208 194 219 250 259 272 273 260 159 180 191 197 203 205 213 208 201 205 211 215 193 208 206 202 199 207 206 203 202 204 208 218 227 235 244 257 265 268 270 274 279 281 280 277 273
291 269 167 190 184 178 188 184 243 276 282 254 159 175 190 194 200 201 206 207 205 203 214 202 214 192 203 211 206 204 201 207 210 208 211 225 235 235 252 256 263 264 267 270 275 285 282 279 276
282 191 154 166 175 133 149 130 175 217 299 289 239 179 179 187 196 204 203 205 205 211 216 225 215 208 196 208 208 210 195 210 210 212 220 222 245 246 253 258 263 264 262 266 272 273 276 273 310
342 166 102 163 175 162 128 101 152 87 12 334 277 185 186 187 189 196 202 202 203 198 211 223 218 230 216 200 220 220 224 220 224 241 234 241 242 241 254 270 273 269 266 266 288 306 296 304 302
181 164 131 69 112 42 84 87 109 175 141 86 24 171 176 184 181 185 186 192 195 193 201 214 219 220 216 224 216 211 221 230 218 215 219 225 236 254 268 273 264 289 295 291 292 291 293 288 294
177 161 58 33 37 2 131 53 47 352 295 198 16 189 183 175 180 183 181 177 179 185 192 182 203 204 215 231 213 217 218 220 232 231 230 235 242 252 265 275 274 276 281 285 284 281 283 288 293
152 179 136 133 100 107 151 42 68 82 240 251 156 163 185 176 175 177 175 173 178 186 189 197 200 204 206 214 216 227 231 227 220 232 239 244 255 260 267 272 275 277 280 284 285 284 291 299 300
96 155 142 111 110 87 34 61 100 87 149 229 168 189 168 180 177 179 172 176 186 198 210 211 215 213 217 222 221 224 226 228 230 239 244 245 248 252 254 258 266 264 272 282 285 289 297 296 292
99 101 96 42 84 88 18 39 3 86 88 181 181 186 176 172 190 170 174 197 204 206 218 226 223 223 226 230 229 227 231 235 238 241 244 244 241 243 251 254 252 271 283 284 272 278 285 285 284
66 61 56 82 54 154 129 57 10 59 71 103 141 172 201 193 186 200 213 228 227 221 221 226 233 237 238 238 233 231 234 235 236 240 240 240 242 250 252 259 267 276 286 298 285 278 286 283 282
72 58 36 40 44 62 81 27 45 64 75 83 85 167 196 207 198 210 219 223 228 221 215 223 234 235 239 235 233 236 235 234 232 235 234 238 245 246 254 271 274 278 292 292 292 292 288 285 282